Погода в Салобеляке

Россия / Кировская область     57˚06′20″N   48˚03′16″E
темп.,
°C
ветер,
м/с
пор.,
м/с
влажн.,
%
обл.,
%
осадки,
мм/ч
давл.,
гПа
погр.,
м
17 января, вс
вс1700:00−14˚сз3396100 0.3 99789
03:00−14˚сз3696100 0.5 999204
06:00−16˚сз4795100 0.2 1000254
09:00−18˚зсз489698 0.3 1003219
12:00−18˚сз359497 0.0 1007310
15:00−21˚сз239789 0.1 101029
18:00−25˚ссз239810 0.0 101320
21:00−26˚ссз12995 0.0 101519
18 января, пн
пн1800:00−27˚зюз11994 0.0 101719
03:00−27˚зсз129820 0.0 101819
06:00−27˚юз229938 0.0 101719
09:00−27˚зюз239853 0.0 101920
12:00−23˚юз249767 0.0 1018153
15:00−24˚зсз129734 0.0 101820
18:00−26˚зюз22980 0.0 101819
21:00−26˚зюз229830 0.0 101819
19 января, вт
вт1900:00−26˚сз119995 0.0 101820
03:00−24˚св119898 0.0 101820
06:00−24˚всв1298100 0.0 101820
09:00−23˚св2397100 0.1 101886
12:00−21˚св2396100 0.0 1017193
15:00−21˚св3596100 0.0 1017171
18:00−23˚св3496100 0.0 101783
21:00−25˚ссв349696 0.0 101741
20 января, ср
ср2000:00−26˚ссв348941 0.0 101746
03:00−27˚ссв348233 0.0 101745
06:00−27˚ссв34770 0.0 101828
09:00−27˚ссв23760 0.0 101920
12:00−22˚с23820 0.0 1020104
15:00−24˚ссз22810 0.0 102020
18:00−26˚зсз12740 0.0 102120
21:00−26˚зюз23740 0.0 102119
21 января, чт
чт2100:00−26˚зюз348623 0.0 102133
03:00−24˚юз3610059 0.0 1021105
06:00−22˚зюз4798100 0.1 1020182
09:00−20˚юз4899100 0.1 1019213
12:00−17˚юз4796100 0.0 1018258
15:00−14˚ююз5996100 0.0 1015292
18:00−13˚ююз5995100 0.4 1012329
21:00−12˚юз51095100 3.3 1010552